OE3AJC-13 Weather Reports


time (UTC)temp
C
wind
direction
speed
KPH
gust
KPH
rain 1hr
cm
rain 24hr
cm
rain mn
cm
humidity
%
barometer
mb
20260506123151 23 108 11.3 19.3 0.00 0.00 0.00 41 1005.7
20260506121149 22 137 9.7 9.7 0.00 0.00 0.00 42 1005.9
20260506120148 22 117 9.7 16.1 0.00 0.00 0.00 43 1005.8
20260506114147 21 154 9.7 9.7 0.00 0.00 0.00 43 1006.1
20260506113146 21 154 9.7 9.7 0.00 0.00 0.00 43 1006.1
20260506110144 22 142 6.4 6.4 0.00 0.00 0.00 41 1006.6
20260506105135 21 135 6.4 8.0 0.00 0.00 0.00 44 1006.5
20260506104134 21 220 6.4 9.7 0.00 0.00 0.00 44 1006.7
20260506103134 21 231 0.0 1.6 0.00 0.00 0.00 44 1006.8
20260506102133 21 232 0.0 0.0 0.00 0.00 0.00 43 1006.9
20260506101132 20 226 0.0 0.0 0.00 0.00 0.00 44 1006.9
20260506100131 21 202 3.2 4.8 0.00 0.00 0.00 43 1007.0
20260506095131 22 169 3.2 4.8 0.00 0.00 0.00 41 1007.2
20260506094130 21 192 1.6 3.2 0.00 0.00 0.00 44 1007.5
20260506093129 21 241 0.0 3.2 0.00 0.00 0.00 47 1007.0
20260506092128 21 307 3.2 4.8 0.00 0.00 0.00 47 1007.6
20260506091128 21 219 3.2 4.8 0.00 0.00 0.00 48 1007.5
20260506090127 20 114 3.2 4.8 0.00 0.00 0.00 50 1007.4
20260506085126 20 133 1.6 3.2 0.00 0.00 0.00 50 1007.6
20260506084125 21 185 4.8 6.4 0.00 0.00 0.00 49 1007.8
20260506083125 20 243 1.6 3.2 0.00 0.00 0.00 50 1007.8
20260506081123 19 217 0.0 0.0 0.00 0.00 0.00 52 1007.7
20260506080122 18 179 3.2 4.8 0.00 0.00 0.00 54 1007.7
20260506073117 17 225 1.6 3.2 0.00 0.00 0.00 59 1008.0
20260506072117 17 147 3.2 3.2 0.00 0.00 0.00 59 1008.2
20260506071116 17 188 1.6 3.2 0.00 0.00 0.00 60 1008.0
20260506070115 17 171 4.8 6.4 0.00 0.00 0.00 59 1008.2
20260506062112 17 187 3.2 6.4 0.00 0.00 0.00 64 1008.1
20260506061112 16 216 3.2 6.4 0.00 0.00 0.00 65 1008.1
20260506060111 16 210 3.2 4.8 0.00 0.00 0.00 66 1007.9
20260506050106 12 208 0.0 1.6 0.00 0.00 0.00 80 1008.1
20260506045106 11 200 0.0 1.6 0.00 0.00 0.00 83 1008.0
20260506044105 10 213 1.6 3.2 0.00 0.00 0.00 84 1008.3
20260506043104 10 224 0.0 1.6 0.00 0.00 0.00 85 1008.0
20260506042103 9 215 0.0 0.0 0.00 0.00 0.00 84 1007.8
20260506041103 9 231 0.0 0.0 0.00 0.00 0.00 84 1007.8
20260506035101 10 203 0.0 1.6 0.00 0.00 0.00 84 1007.5
20260506034100 10 227 0.0 0.0 0.00 0.00 0.00 84 1007.3
20260506033100 10 218 0.0 1.6 0.00 0.00 0.00 84 1007.2
20260506032058 10 226 0.0 0.0 0.00 0.00 0.00 84 1007.0
20260506031058 10 229 0.0 0.0 0.00 0.00 0.00 83 1007.2
20260506030057 10 232 0.0 0.0 0.00 0.00 0.00 83 1007.3
20260506025056 10 226 0.0 0.0 0.00 0.00 0.00 83 1007.3
20260506024056 10 232 0.0 0.0 0.00 0.00 0.00 83 1007.2
20260506023055 11 227 0.0 0.0 0.00 0.00 0.00 82 1007.5
20260506022054 11 206 0.0 1.6 0.00 0.00 0.00 82 1007.4
20260506021053 11 225 0.0 0.0 0.00 0.00 0.00 81 1007.5
20260506020053 11 211 0.0 3.2 0.00 0.00 0.00 81 1007.6
20260506015052 12 222 0.0 0.0 0.00 0.00 0.00 81 1007.3
20260506014051 12 231 0.0 0.0 0.00 0.00 0.00 80 1007.3
20260506013050 12 230 0.0 0.0 0.00 0.00 0.00 80 1007.4
20260506012050 12 231 0.0 0.0 0.00 0.00 0.00 79 1007.6
20260506011049 12 231 0.0 0.0 0.00 0.00 0.00 78 1007.5
20260506010048 12 228 0.0 0.0 0.00 0.00 0.00 78 1007.5